Year,Month,Day,Hour,Minute,Value (Times are PST for temperature in C)
2016,02,09,00,00,5.00
2016,02,09,00,01,5.00
2016,02,09,00,02,5.00
2016,02,09,00,03,4.90
2016,02,09,00,04,4.90
2016,02,09,00,05,4.90
2016,02,09,00,06,4.90
2016,02,09,00,07,4.90
2016,02,09,00,08,4.80
2016,02,09,00,09,4.80
2016,02,09,00,10,4.80
2016,02,09,00,11,4.80
2016,02,09,00,12,4.80
2016,02,09,00,13,4.70
2016,02,09,00,14,4.70
2016,02,09,00,15,4.70
2016,02,09,00,16,4.70
2016,02,09,00,17,4.70
2016,02,09,00,18,4.70
2016,02,09,00,19,4.70
2016,02,09,00,20,4.70
2016,02,09,00,21,4.60
2016,02,09,00,22,4.60
2016,02,09,00,23,4.60
2016,02,09,00,24,4.60
2016,02,09,00,25,4.60
2016,02,09,00,26,4.50
2016,02,09,00,27,4.50
2016,02,09,00,28,4.50
2016,02,09,00,29,4.50
2016,02,09,00,30,4.50
2016,02,09,00,31,4.50
2016,02,09,00,32,4.50
2016,02,09,00,33,4.40
2016,02,09,00,34,4.40
2016,02,09,00,35,4.40
2016,02,09,00,36,4.40
2016,02,09,00,37,4.40
2016,02,09,00,38,4.40
2016,02,09,00,39,4.40
2016,02,09,00,40,4.40
2016,02,09,00,41,4.40
2016,02,09,00,42,4.40
2016,02,09,00,43,4.40
2016,02,09,00,44,4.40
2016,02,09,00,45,4.40
2016,02,09,00,46,4.40
2016,02,09,00,47,4.40
2016,02,09,00,48,4.30
2016,02,09,00,49,4.30
2016,02,09,00,50,4.30
2016,02,09,00,51,4.30
2016,02,09,00,52,4.30
2016,02,09,00,53,4.30
2016,02,09,00,54,4.30
2016,02,09,00,55,4.30
2016,02,09,00,56,4.30
2016,02,09,00,57,4.30
2016,02,09,00,58,4.30
2016,02,09,00,59,4.30
2016,02,09,01,00,4.30
2016,02,09,01,01,4.30
2016,02,09,01,02,4.30
2016,02,09,01,03,4.30
2016,02,09,01,04,4.20
2016,02,09,01,05,4.20
2016,02,09,01,06,4.20
2016,02,09,01,07,4.20
2016,02,09,01,08,4.20
2016,02,09,01,09,4.20
2016,02,09,01,10,4.20
2016,02,09,01,11,4.20
2016,02,09,01,12,4.20
2016,02,09,01,13,4.20
2016,02,09,01,14,4.20
2016,02,09,01,15,4.20
2016,02,09,01,16,4.20
2016,02,09,01,17,4.20
2016,02,09,01,18,4.20
2016,02,09,01,19,4.20
2016,02,09,01,20,4.20
2016,02,09,01,21,4.20
2016,02,09,01,22,4.20
2016,02,09,01,23,4.20
2016,02,09,01,24,4.20
2016,02,09,01,25,4.20
2016,02,09,01,26,4.20
2016,02,09,01,27,4.20
2016,02,09,01,28,4.20
2016,02,09,01,29,4.20
2016,02,09,01,30,4.20
2016,02,09,01,31,4.20
2016,02,09,01,32,4.20
2016,02,09,01,33,4.10
2016,02,09,01,34,4.10
2016,02,09,01,35,4.10
2016,02,09,01,36,4.10
2016,02,09,01,37,4.10
2016,02,09,01,38,4.10
2016,02,09,01,39,4.10
2016,02,09,01,40,4.10
2016,02,09,01,41,4.10
2016,02,09,01,42,4.10
2016,02,09,01,43,4.10
2016,02,09,01,44,4.10
2016,02,09,01,45,4.10
2016,02,09,01,46,4.10
2016,02,09,01,47,4.10
2016,02,09,01,48,4.10
2016,02,09,01,49,4.00
2016,02,09,01,50,4.00
2016,02,09,01,51,4.00
2016,02,09,01,52,3.90
2016,02,09,01,53,4.00
2016,02,09,01,54,3.90
2016,02,09,01,55,3.90
2016,02,09,01,56,3.90
2016,02,09,01,57,3.90
2016,02,09,01,58,3.90
2016,02,09,01,59,3.90
2016,02,09,02,00,3.90
2016,02,09,02,01,3.90
2016,02,09,02,02,3.80
2016,02,09,02,03,3.80
2016,02,09,02,04,3.80
2016,02,09,02,05,3.80
2016,02,09,02,06,3.80
2016,02,09,02,07,3.80
2016,02,09,02,08,3.80
2016,02,09,02,09,3.80
2016,02,09,02,10,3.80
2016,02,09,02,11,3.80
2016,02,09,02,12,3.80
2016,02,09,02,13,3.80
2016,02,09,02,14,3.80
2016,02,09,02,15,3.80
2016,02,09,02,16,3.70
2016,02,09,02,17,3.70
2016,02,09,02,18,3.70
2016,02,09,02,19,3.70
2016,02,09,02,20,3.70
2016,02,09,02,21,3.70
2016,02,09,02,22,3.70
2016,02,09,02,23,3.70
2016,02,09,02,24,3.70
2016,02,09,02,25,3.70
2016,02,09,02,26,3.70
2016,02,09,02,27,3.70
2016,02,09,02,28,3.60
2016,02,09,02,29,3.60
2016,02,09,02,30,3.60
2016,02,09,02,31,3.60
2016,02,09,02,32,3.50
2016,02,09,02,33,3.50
2016,02,09,02,34,3.50
2016,02,09,02,35,3.50
2016,02,09,02,36,3.40
2016,02,09,02,37,3.40
2016,02,09,02,38,3.40
2016,02,09,02,39,3.40
2016,02,09,02,40,3.40
2016,02,09,02,41,3.40
2016,02,09,02,42,3.40
2016,02,09,02,43,3.40
2016,02,09,02,44,3.30
2016,02,09,02,45,3.30
2016,02,09,02,46,3.30
2016,02,09,02,47,3.30
2016,02,09,02,48,3.30
2016,02,09,02,49,3.30
2016,02,09,02,50,3.30
2016,02,09,02,51,3.30
2016,02,09,02,52,3.30
2016,02,09,02,53,3.30
2016,02,09,02,54,3.30
2016,02,09,02,55,3.30
2016,02,09,02,56,3.30
2016,02,09,02,57,3.30
2016,02,09,02,58,3.30
2016,02,09,02,59,3.30
2016,02,09,03,00,3.30
2016,02,09,03,01,3.30
2016,02,09,03,02,3.30
2016,02,09,03,03,3.30
2016,02,09,03,04,3.30
2016,02,09,03,05,3.30
2016,02,09,03,06,3.30
2016,02,09,03,07,3.30
2016,02,09,03,08,3.30
2016,02,09,03,09,3.30
2016,02,09,03,10,3.30
2016,02,09,03,11,3.30
2016,02,09,03,12,3.30
2016,02,09,03,13,3.30
2016,02,09,03,14,3.30
2016,02,09,03,15,3.30
2016,02,09,03,16,3.30
2016,02,09,03,17,3.30
2016,02,09,03,18,3.30
2016,02,09,03,19,3.30
2016,02,09,03,20,3.30
2016,02,09,03,21,3.30
2016,02,09,03,22,3.30
2016,02,09,03,23,3.30
2016,02,09,03,24,3.30
2016,02,09,03,25,3.30
2016,02,09,03,26,3.30
2016,02,09,03,27,3.30
2016,02,09,03,28,3.30
2016,02,09,03,29,3.30
2016,02,09,03,30,3.30
2016,02,09,03,31,3.30
2016,02,09,03,32,3.30
2016,02,09,03,33,3.20
2016,02,09,03,34,3.20
2016,02,09,03,35,3.20
2016,02,09,03,36,3.20
2016,02,09,03,37,3.20
2016,02,09,03,38,3.20
2016,02,09,03,39,3.20
2016,02,09,03,40,3.20
2016,02,09,03,41,3.20
2016,02,09,03,42,3.20
2016,02,09,03,43,3.20
2016,02,09,03,44,3.20
2016,02,09,03,45,3.20
2016,02,09,03,46,3.20
2016,02,09,03,47,3.20
2016,02,09,03,48,3.20
2016,02,09,03,49,3.20
2016,02,09,03,50,3.20
2016,02,09,03,51,3.20
2016,02,09,03,52,3.20
2016,02,09,03,53,3.30
2016,02,09,03,54,3.30
2016,02,09,03,55,3.30
2016,02,09,03,56,3.30
2016,02,09,03,57,3.30
2016,02,09,03,58,3.30
2016,02,09,03,59,3.30
2016,02,09,04,00,3.30
2016,02,09,04,01,3.30
2016,02,09,04,02,3.30
2016,02,09,04,03,3.30
2016,02,09,04,04,3.30
2016,02,09,04,05,3.40
2016,02,09,04,06,3.30
2016,02,09,04,07,3.30
2016,02,09,04,08,3.30
2016,02,09,04,09,3.30
2016,02,09,04,10,3.30
2016,02,09,04,11,3.30
2016,02,09,04,12,3.30
2016,02,09,04,13,3.30
2016,02,09,04,14,3.30
2016,02,09,04,15,3.30
2016,02,09,04,16,3.30
2016,02,09,04,17,3.30
2016,02,09,04,18,3.30
2016,02,09,04,19,3.30
2016,02,09,04,20,3.30
2016,02,09,04,21,3.30
2016,02,09,04,22,3.30
2016,02,09,04,23,3.30
2016,02,09,04,24,3.30
2016,02,09,04,25,3.30
2016,02,09,04,26,3.30
2016,02,09,04,27,3.30
2016,02,09,04,28,3.30
2016,02,09,04,29,3.30
2016,02,09,04,30,3.30
2016,02,09,04,31,3.30
2016,02,09,04,32,3.30
2016,02,09,04,33,3.30
2016,02,09,04,34,3.30
2016,02,09,04,35,3.30
2016,02,09,04,36,3.30
2016,02,09,04,37,3.30
2016,02,09,04,38,3.30
2016,02,09,04,39,3.30
2016,02,09,04,40,3.30
2016,02,09,04,41,3.30
2016,02,09,04,42,3.30
2016,02,09,04,43,3.30
2016,02,09,04,44,3.30
2016,02,09,04,45,3.30
2016,02,09,04,46,3.30
2016,02,09,04,47,3.30
2016,02,09,04,48,3.30
2016,02,09,04,49,3.20
2016,02,09,04,50,3.20
2016,02,09,04,51,3.20
2016,02,09,04,52,3.20
2016,02,09,04,53,3.20
2016,02,09,04,54,3.20
2016,02,09,04,55,3.20
2016,02,09,04,56,3.20
2016,02,09,04,57,3.10
2016,02,09,04,58,3.10
2016,02,09,04,59,3.10
2016,02,09,05,00,3.10
2016,02,09,05,01,3.10
2016,02,09,05,02,3.10
2016,02,09,05,03,3.10
2016,02,09,05,04,3.00
2016,02,09,05,05,3.00
2016,02,09,05,06,3.00
2016,02,09,05,07,3.00
2016,02,09,05,08,3.00
2016,02,09,05,09,3.00
2016,02,09,05,10,3.00
2016,02,09,05,11,3.10
2016,02,09,05,12,3.10
2016,02,09,05,13,3.10
2016,02,09,05,14,3.10
2016,02,09,05,15,3.10
2016,02,09,05,16,3.10
2016,02,09,05,17,3.10
2016,02,09,05,18,3.10
2016,02,09,05,19,3.10
2016,02,09,05,20,3.10
2016,02,09,05,21,3.10
2016,02,09,05,22,3.10
2016,02,09,05,23,3.10
2016,02,09,05,24,3.00
2016,02,09,05,25,3.00
2016,02,09,05,26,3.00
2016,02,09,05,27,3.00
2016,02,09,05,28,3.00
2016,02,09,05,29,3.00
2016,02,09,05,30,3.00
2016,02,09,05,31,3.00
2016,02,09,05,32,3.00
2016,02,09,05,33,3.00
2016,02,09,05,34,2.90
2016,02,09,05,35,2.90
2016,02,09,05,36,2.90
2016,02,09,05,37,2.90
2016,02,09,05,38,2.90
2016,02,09,05,39,2.90
2016,02,09,05,40,2.90
2016,02,09,05,41,2.90
2016,02,09,05,42,2.90
2016,02,09,05,43,2.90
2016,02,09,05,44,2.90
2016,02,09,05,45,2.90
2016,02,09,05,46,2.90
2016,02,09,05,47,2.90
2016,02,09,05,48,2.90
2016,02,09,05,49,2.90
2016,02,09,05,50,2.90
2016,02,09,05,51,2.90
2016,02,09,05,52,2.90
2016,02,09,05,53,2.90
2016,02,09,05,54,2.90
2016,02,09,05,55,2.90
2016,02,09,05,56,2.90
2016,02,09,05,57,2.90
2016,02,09,05,58,2.90
2016,02,09,05,59,2.90
2016,02,09,06,00,2.90
2016,02,09,06,01,2.90
2016,02,09,06,02,2.90
2016,02,09,06,03,2.90
2016,02,09,06,04,2.90
2016,02,09,06,05,2.90
2016,02,09,06,06,2.90
2016,02,09,06,07,2.90
2016,02,09,06,08,2.90
2016,02,09,06,09,2.90
2016,02,09,06,10,2.90
2016,02,09,06,11,2.90
2016,02,09,06,12,2.90
2016,02,09,06,13,2.90
2016,02,09,06,14,2.90
2016,02,09,06,15,2.90
2016,02,09,06,16,2.90
2016,02,09,06,17,2.90
2016,02,09,06,18,2.80
2016,02,09,06,19,2.80
2016,02,09,06,20,2.80
2016,02,09,06,21,2.80
2016,02,09,06,22,2.80
2016,02,09,06,23,2.80
2016,02,09,06,24,2.70
2016,02,09,06,25,2.70
2016,02,09,06,26,2.70
2016,02,09,06,27,2.70
2016,02,09,06,28,2.60
2016,02,09,06,29,2.60
2016,02,09,06,30,2.60
2016,02,09,06,31,2.50
2016,02,09,06,32,2.50
2016,02,09,06,33,2.50
2016,02,09,06,34,2.40
2016,02,09,06,35,2.40
2016,02,09,06,36,2.40
2016,02,09,06,37,2.40
2016,02,09,06,38,2.40
2016,02,09,06,39,2.40
2016,02,09,06,40,2.30
2016,02,09,06,41,2.30
2016,02,09,06,42,2.30
2016,02,09,06,43,2.30
2016,02,09,06,44,2.30
2016,02,09,06,45,2.20
2016,02,09,06,46,2.20
2016,02,09,06,47,2.20
2016,02,09,06,48,2.20
2016,02,09,06,49,2.20
2016,02,09,06,50,2.10
2016,02,09,06,51,2.10
2016,02,09,06,52,2.10
2016,02,09,06,53,2.10
2016,02,09,06,54,2.10
2016,02,09,06,55,2.10
2016,02,09,06,56,2.10
2016,02,09,06,57,2.00
2016,02,09,06,58,2.00
2016,02,09,06,59,2.00
2016,02,09,07,00,2.00
2016,02,09,07,01,2.00
2016,02,09,07,02,1.90
2016,02,09,07,03,1.90
2016,02,09,07,04,1.90
2016,02,09,07,05,1.90
2016,02,09,07,06,1.90
2016,02,09,07,07,1.90
2016,02,09,07,08,1.90
2016,02,09,07,09,1.90
2016,02,09,07,10,1.90
2016,02,09,07,11,1.90
2016,02,09,07,12,1.80
2016,02,09,07,13,1.80
2016,02,09,07,14,1.80
2016,02,09,07,15,1.80
2016,02,09,07,16,1.80
2016,02,09,07,17,1.80
2016,02,09,07,18,1.80
2016,02,09,07,19,1.80
2016,02,09,07,20,1.80
2016,02,09,07,21,1.80
2016,02,09,07,22,1.80
2016,02,09,07,23,1.80
2016,02,09,07,24,1.80
2016,02,09,07,25,1.80
2016,02,09,07,26,1.80
2016,02,09,07,27,1.80
2016,02,09,07,28,1.80
2016,02,09,07,29,1.80
2016,02,09,07,30,1.80
2016,02,09,07,31,1.80
2016,02,09,07,32,1.80
2016,02,09,07,33,1.80
2016,02,09,07,34,1.80
2016,02,09,07,35,1.80
2016,02,09,07,36,1.80
2016,02,09,07,37,1.80
2016,02,09,07,38,1.80
2016,02,09,07,39,1.80
2016,02,09,07,40,1.80
2016,02,09,07,41,1.80
2016,02,09,07,42,1.80
2016,02,09,07,43,1.80
2016,02,09,07,44,1.80
2016,02,09,07,45,1.80
2016,02,09,07,46,1.80
2016,02,09,07,47,1.90
2016,02,09,07,48,1.90
2016,02,09,07,49,1.90
2016,02,09,07,50,1.90
2016,02,09,07,51,1.90
2016,02,09,07,52,1.90
2016,02,09,07,53,1.90
2016,02,09,07,54,1.90
2016,02,09,07,55,1.90
2016,02,09,07,56,1.90
2016,02,09,07,57,2.00
2016,02,09,07,58,2.00
2016,02,09,07,59,2.00
2016,02,09,08,00,2.10
2016,02,09,08,01,2.10
2016,02,09,08,02,2.10
2016,02,09,08,03,2.10
2016,02,09,08,04,2.20
2016,02,09,08,05,2.20
2016,02,09,08,06,2.20
2016,02,09,08,07,2.20
2016,02,09,08,08,2.20
2016,02,09,08,09,2.30
2016,02,09,08,10,2.30
2016,02,09,08,11,2.30
2016,02,09,08,12,2.40
2016,02,09,08,13,2.40
2016,02,09,08,14,2.50
2016,02,09,08,15,2.50
2016,02,09,08,16,2.60
2016,02,09,08,17,2.60
2016,02,09,08,18,2.60
2016,02,09,08,19,2.70
2016,02,09,08,20,2.70
2016,02,09,08,21,2.80
2016,02,09,08,22,2.80
2016,02,09,08,23,2.90
2016,02,09,08,24,2.90
2016,02,09,08,25,3.00
2016,02,09,08,26,3.00
2016,02,09,08,27,3.00
2016,02,09,08,28,3.10
2016,02,09,08,29,3.10
2016,02,09,08,30,3.20
2016,02,09,08,31,3.30
2016,02,09,08,32,3.40
2016,02,09,08,33,3.50
2016,02,09,08,34,3.60
2016,02,09,08,35,3.70
2016,02,09,08,36,3.80
2016,02,09,08,37,3.80
2016,02,09,08,38,3.90
2016,02,09,08,39,3.90
2016,02,09,08,40,4.00
2016,02,09,08,41,4.00
2016,02,09,08,42,4.10
2016,02,09,08,43,4.10
2016,02,09,08,44,4.20
2016,02,09,08,45,4.30
2016,02,09,08,46,4.30
2016,02,09,08,47,4.40
2016,02,09,08,48,4.50
2016,02,09,08,49,4.60
2016,02,09,08,50,4.70
2016,02,09,08,51,4.70
2016,02,09,08,52,4.80
2016,02,09,08,53,4.80
2016,02,09,08,54,4.90
2016,02,09,08,55,4.90
2016,02,09,08,56,5.00
2016,02,09,08,57,5.00
2016,02,09,08,58,5.00
2016,02,09,08,59,5.10
2016,02,09,09,00,5.10
2016,02,09,09,01,5.20
2016,02,09,09,02,5.20
2016,02,09,09,03,5.30
2016,02,09,09,04,5.30
2016,02,09,09,05,5.40
2016,02,09,09,06,5.50
2016,02,09,09,07,5.60
2016,02,09,09,08,5.80
2016,02,09,09,09,5.90
2016,02,09,09,10,6.00
2016,02,09,09,11,6.10
2016,02,09,09,12,6.10
2016,02,09,09,13,6.10
2016,02,09,09,14,6.20
2016,02,09,09,15,6.20
2016,02,09,09,16,6.30
2016,02,09,09,17,6.30
2016,02,09,09,18,6.40
2016,02,09,09,19,6.40
2016,02,09,09,20,6.40
2016,02,09,09,21,6.50
2016,02,09,09,22,6.50
2016,02,09,09,23,6.60
2016,02,09,09,24,6.60
2016,02,09,09,25,6.70
2016,02,09,09,26,6.70
2016,02,09,09,27,6.80
2016,02,09,09,28,6.90
2016,02,09,09,29,6.90
2016,02,09,09,30,7.00
2016,02,09,09,31,7.10
2016,02,09,09,32,7.20
2016,02,09,09,33,7.20
2016,02,09,09,34,7.30
2016,02,09,09,35,7.30
2016,02,09,09,36,7.40
2016,02,09,09,37,7.40
2016,02,09,09,38,7.50
2016,02,09,09,39,7.60
2016,02,09,09,40,7.60
2016,02,09,09,41,7.70
2016,02,09,09,42,7.80
2016,02,09,09,43,7.90
2016,02,09,09,44,7.90
2016,02,09,09,45,8.00
2016,02,09,09,46,8.00
2016,02,09,09,47,8.10
2016,02,09,09,48,8.10
2016,02,09,09,49,8.20
2016,02,09,09,50,8.20
2016,02,09,09,51,8.20
2016,02,09,09,52,8.20
2016,02,09,09,53,8.20
2016,02,09,09,54,8.20
2016,02,09,09,55,8.30
2016,02,09,09,56,8.30
2016,02,09,09,57,8.30
2016,02,09,09,58,8.30
2016,02,09,09,59,8.30
2016,02,09,10,00,8.30
2016,02,09,10,01,8.20
2016,02,09,10,02,8.20
2016,02,09,10,03,8.30
2016,02,09,10,04,8.30
2016,02,09,10,05,8.30
2016,02,09,10,06,8.40
2016,02,09,10,07,8.40
2016,02,09,10,08,8.50
2016,02,09,10,09,8.60
2016,02,09,10,10,8.60
2016,02,09,10,11,8.70
2016,02,09,10,12,8.80
2016,02,09,10,13,8.90
2016,02,09,10,14,9.00
2016,02,09,10,15,9.10
2016,02,09,10,16,9.10
2016,02,09,10,17,9.20
2016,02,09,10,18,9.30
2016,02,09,10,19,9.40
2016,02,09,10,20,9.50
2016,02,09,10,21,9.60
2016,02,09,10,22,9.60
2016,02,09,10,23,9.70
2016,02,09,10,24,9.70
2016,02,09,10,25,9.80
2016,02,09,10,26,9.80
2016,02,09,10,27,9.90
2016,02,09,10,28,10.00
2016,02,09,10,29,10.00
2016,02,09,10,30,10.10
2016,02,09,10,31,10.20
2016,02,09,10,32,10.30
2016,02,09,10,33,10.40
2016,02,09,10,34,10.50
2016,02,09,10,35,10.60
2016,02,09,10,36,10.60
2016,02,09,10,37,10.70
2016,02,09,10,38,10.80
2016,02,09,10,39,10.90
2016,02,09,10,40,10.90
2016,02,09,10,41,11.00
2016,02,09,10,42,11.10
2016,02,09,10,43,11.20
2016,02,09,10,44,11.20
2016,02,09,10,45,11.30
2016,02,09,10,46,11.30
2016,02,09,10,47,11.30
2016,02,09,10,48,11.30
2016,02,09,10,49,11.30
2016,02,09,10,50,11.30
2016,02,09,10,51,11.30
2016,02,09,10,52,11.30
2016,02,09,10,53,11.30
2016,02,09,10,54,11.30
2016,02,09,10,55,11.30
2016,02,09,10,56,11.30
2016,02,09,10,57,11.30
2016,02,09,10,58,11.30
2016,02,09,10,59,11.30
2016,02,09,11,00,11.30
2016,02,09,11,01,11.30
2016,02,09,11,02,11.40
2016,02,09,11,03,11.40
2016,02,09,11,04,11.40
2016,02,09,11,05,11.40
2016,02,09,11,06,11.40
2016,02,09,11,07,11.40
2016,02,09,11,08,11.50
2016,02,09,11,09,11.50
2016,02,09,11,10,11.50
2016,02,09,11,11,11.60
2016,02,09,11,12,11.60
2016,02,09,11,13,11.60
2016,02,09,11,14,11.60
2016,02,09,11,15,11.60
2016,02,09,11,16,11.60
2016,02,09,11,17,11.60
2016,02,09,11,18,11.60
2016,02,09,11,19,11.60
2016,02,09,11,20,11.60
2016,02,09,11,21,11.60
2016,02,09,11,22,11.60
2016,02,09,11,23,11.60
2016,02,09,11,24,11.60
2016,02,09,11,25,11.60
2016,02,09,11,26,11.60
2016,02,09,11,27,11.60
2016,02,09,11,28,11.70
2016,02,09,11,29,11.70
2016,02,09,11,30,11.70
2016,02,09,11,31,11.70
2016,02,09,11,32,11.70
2016,02,09,11,33,11.70
2016,02,09,11,34,11.80
2016,02,09,11,35,11.80
2016,02,09,11,36,11.80
2016,02,09,11,37,11.90
2016,02,09,11,38,11.90
2016,02,09,11,39,11.90
2016,02,09,11,40,11.90
2016,02,09,11,41,12.00
2016,02,09,11,42,12.00
2016,02,09,11,43,12.00
2016,02,09,11,44,12.10
2016,02,09,11,45,12.20
2016,02,09,11,46,12.20
2016,02,09,11,47,12.30
2016,02,09,11,48,12.30
2016,02,09,11,49,12.40
2016,02,09,11,50,12.40
2016,02,09,11,51,12.50
2016,02,09,11,52,12.60
2016,02,09,11,53,12.70
2016,02,09,11,54,12.70
2016,02,09,11,55,12.80
2016,02,09,11,56,12.80
2016,02,09,11,57,12.80
2016,02,09,11,58,12.90
2016,02,09,11,59,12.90
2016,02,09,12,00,13.00
2016,02,09,12,01,13.00
2016,02,09,12,02,13.10
2016,02,09,12,03,13.10
2016,02,09,12,04,13.10
2016,02,09,12,05,13.20
2016,02,09,12,06,13.20
2016,02,09,12,07,13.30
2016,02,09,12,08,13.30
2016,02,09,12,09,13.40
2016,02,09,12,10,13.40
2016,02,09,12,11,13.40
2016,02,09,12,12,13.50
2016,02,09,12,13,13.50
2016,02,09,12,14,13.50
2016,02,09,12,15,13.50
2016,02,09,12,16,13.60
2016,02,09,12,17,13.60
2016,02,09,12,18,13.70
2016,02,09,12,19,13.70
2016,02,09,12,20,13.70
2016,02,09,12,21,13.70
2016,02,09,12,22,13.60
2016,02,09,12,23,13.60
2016,02,09,12,24,13.60
2016,02,09,12,25,13.60
2016,02,09,12,26,13.70
2016,02,09,12,27,13.70
2016,02,09,12,28,13.70
2016,02,09,12,29,13.70
2016,02,09,12,30,13.80
2016,02,09,12,31,13.80
2016,02,09,12,32,13.80
2016,02,09,12,33,13.80
2016,02,09,12,34,13.90
2016,02,09,12,35,13.90
2016,02,09,12,36,13.90
2016,02,09,12,37,13.90
2016,02,09,12,38,14.00
2016,02,09,12,39,14.00
2016,02,09,12,40,14.10
2016,02,09,12,41,14.10
2016,02,09,12,42,14.10
2016,02,09,12,43,14.10
2016,02,09,12,44,14.20
2016,02,09,12,45,14.20
2016,02,09,12,46,14.20
2016,02,09,12,47,14.20
2016,02,09,12,48,14.30
2016,02,09,12,49,14.30
2016,02,09,12,50,14.30
2016,02,09,12,51,14.30
2016,02,09,12,52,14.40
2016,02,09,12,53,14.40
2016,02,09,12,54,14.50
2016,02,09,12,55,14.50
2016,02,09,12,56,14.60
2016,02,09,12,57,14.70
2016,02,09,12,58,14.70
2016,02,09,12,59,14.80
2016,02,09,13,00,14.80
2016,02,09,13,01,14.90
2016,02,09,13,02,14.90
2016,02,09,13,03,14.90
2016,02,09,13,04,15.00
2016,02,09,13,05,15.00
2016,02,09,13,06,15.10
2016,02,09,13,07,15.20
2016,02,09,13,08,15.20
2016,02,09,13,09,15.20
2016,02,09,13,10,15.20
2016,02,09,13,11,15.20
2016,02,09,13,12,15.10
2016,02,09,13,13,15.10
2016,02,09,13,14,15.10
2016,02,09,13,15,15.10
2016,02,09,13,16,15.20
2016,02,09,13,17,15.20
2016,02,09,13,18,15.20
2016,02,09,13,19,15.20
2016,02,09,13,20,15.20
2016,02,09,13,21,15.20
2016,02,09,13,22,15.10
2016,02,09,13,23,15.10
2016,02,09,13,24,15.10
2016,02,09,13,25,15.10
2016,02,09,13,26,15.10
2016,02,09,13,27,15.20
2016,02,09,13,28,15.20
2016,02,09,13,29,15.20
2016,02,09,13,30,15.20
2016,02,09,13,31,15.20
2016,02,09,13,32,15.20
2016,02,09,13,33,15.20
2016,02,09,13,34,15.20
2016,02,09,13,35,15.20
2016,02,09,13,36,15.30
2016,02,09,13,37,15.30
2016,02,09,13,38,15.30
2016,02,09,13,39,15.40
2016,02,09,13,40,15.50
2016,02,09,13,41,15.50
2016,02,09,13,42,15.60
2016,02,09,13,43,15.70
2016,02,09,13,44,15.80
2016,02,09,13,45,15.90
2016,02,09,13,46,16.00
2016,02,09,13,47,16.10
2016,02,09,13,48,16.20
2016,02,09,13,49,16.30
2016,02,09,13,50,16.30
2016,02,09,13,51,16.30
2016,02,09,13,52,16.40
2016,02,09,13,53,16.40
2016,02,09,13,54,16.40
2016,02,09,13,55,16.50
2016,02,09,13,56,16.50
2016,02,09,13,57,16.60
2016,02,09,13,58,16.60
2016,02,09,13,59,16.60
2016,02,09,14,00,16.60
2016,02,09,14,01,16.60
2016,02,09,14,02,16.70
2016,02,09,14,03,16.70
2016,02,09,14,04,16.70
2016,02,09,14,05,16.70
2016,02,09,14,06,16.70
2016,02,09,14,07,16.60
2016,02,09,14,08,16.60
2016,02,09,14,09,16.60
2016,02,09,14,10,16.70
2016,02,09,14,11,16.70
2016,02,09,14,12,16.70
2016,02,09,14,13,16.70
2016,02,09,14,14,16.70
2016,02,09,14,15,16.70
2016,02,09,14,16,16.70
2016,02,09,14,17,16.70
2016,02,09,14,18,16.70
2016,02,09,14,19,16.80
2016,02,09,14,20,16.80
2016,02,09,14,21,16.80
2016,02,09,14,22,16.90
2016,02,09,14,23,16.90
2016,02,09,14,24,16.90
2016,02,09,14,25,17.00
2016,02,09,14,26,17.00
2016,02,09,14,27,17.00
2016,02,09,14,28,17.00
2016,02,09,14,29,17.00
2016,02,09,14,30,17.00
2016,02,09,14,31,17.10
2016,02,09,14,32,17.10
2016,02,09,14,33,17.20
2016,02,09,14,34,17.20
2016,02,09,14,35,17.30
2016,02,09,14,36,17.30
2016,02,09,14,37,17.30
2016,02,09,14,38,17.30
2016,02,09,14,39,17.30
2016,02,09,14,40,17.40
2016,02,09,14,41,17.40
2016,02,09,14,42,17.50
2016,02,09,14,43,17.50
2016,02,09,14,44,17.60
2016,02,09,14,45,17.50
2016,02,09,14,46,17.50
2016,02,09,14,47,17.50
2016,02,09,14,48,17.50
2016,02,09,14,49,17.50
2016,02,09,14,50,17.60
2016,02,09,14,51,17.60
2016,02,09,14,52,17.60
2016,02,09,14,53,17.60
2016,02,09,14,54,17.60
2016,02,09,14,55,17.60
2016,02,09,14,56,17.60
2016,02,09,14,57,17.70
2016,02,09,14,58,17.70
2016,02,09,14,59,17.80
2016,02,09,15,00,17.80
2016,02,09,15,01,17.80
2016,02,09,15,02,17.90
2016,02,09,15,03,17.90
2016,02,09,15,04,18.00
2016,02,09,15,05,18.00
2016,02,09,15,06,18.10
2016,02,09,15,07,18.10
2016,02,09,15,08,18.10
2016,02,09,15,09,18.10
2016,02,09,15,10,18.10
2016,02,09,15,11,18.10
2016,02,09,15,12,18.20
2016,02,09,15,13,18.20
2016,02,09,15,14,18.20
2016,02,09,15,15,18.20
2016,02,09,15,16,18.30
2016,02,09,15,17,18.30
2016,02,09,15,18,18.30
2016,02,09,15,19,18.30
2016,02,09,15,20,18.30
2016,02,09,15,21,18.40
2016,02,09,15,22,18.40
2016,02,09,15,23,18.40
2016,02,09,15,24,18.50
2016,02,09,15,25,18.50
2016,02,09,15,26,18.50
2016,02,09,15,27,18.60
2016,02,09,15,28,18.60
2016,02,09,15,29,18.60
2016,02,09,15,30,18.60
2016,02,09,15,31,18.70
2016,02,09,15,32,18.70
2016,02,09,15,33,18.70
2016,02,09,15,34,18.70
2016,02,09,15,35,18.70
2016,02,09,15,36,18.70
2016,02,09,15,37,18.70
2016,02,09,15,38,18.70
2016,02,09,15,39,18.70
2016,02,09,15,40,18.80
2016,02,09,15,41,18.80
2016,02,09,15,42,18.80
2016,02,09,15,43,18.80
2016,02,09,15,44,18.80
2016,02,09,15,45,18.80
2016,02,09,15,46,18.80
2016,02,09,15,47,18.80
2016,02,09,15,48,18.80
2016,02,09,15,49,18.80
2016,02,09,15,50,18.80
2016,02,09,15,51,18.80
2016,02,09,15,52,18.70
2016,02,09,15,53,18.70
2016,02,09,15,54,18.70
2016,02,09,15,55,18.70
2016,02,09,15,56,18.70
2016,02,09,15,57,18.70
2016,02,09,15,58,18.70
2016,02,09,15,59,18.70
2016,02,09,16,00,18.60
2016,02,09,16,01,18.60
2016,02,09,16,02,18.60
2016,02,09,16,03,18.60
2016,02,09,16,04,18.60
2016,02,09,16,05,18.60
2016,02,09,16,06,18.60
2016,02,09,16,07,18.50
2016,02,09,16,08,18.50
2016,02,09,16,09,18.50
2016,02,09,16,10,18.40
2016,02,09,16,11,18.40
2016,02,09,16,12,18.30
2016,02,09,16,13,18.30
2016,02,09,16,14,18.30
2016,02,09,16,15,18.30
2016,02,09,16,16,18.30
2016,02,09,16,17,18.30
2016,02,09,16,18,18.30
2016,02,09,16,19,18.20
2016,02,09,16,20,18.20
2016,02,09,16,21,18.20
2016,02,09,16,22,18.10
2016,02,09,16,23,18.10
2016,02,09,16,24,18.00
2016,02,09,16,25,18.00
2016,02,09,16,26,17.90
2016,02,09,16,27,17.80
2016,02,09,16,28,17.80
2016,02,09,16,29,17.70
2016,02,09,16,30,17.70
2016,02,09,16,31,17.60
2016,02,09,16,32,17.60
2016,02,09,16,33,17.50
2016,02,09,16,34,17.50
2016,02,09,16,35,17.40
2016,02,09,16,36,17.40
2016,02,09,16,37,17.30
2016,02,09,16,38,17.30
2016,02,09,16,39,17.20
2016,02,09,16,40,17.10
2016,02,09,16,41,17.00
2016,02,09,16,42,16.90
2016,02,09,16,43,16.70
2016,02,09,16,44,16.60
2016,02,09,16,45,16.60
2016,02,09,16,46,16.50
2016,02,09,16,47,16.50
2016,02,09,16,48,16.40
2016,02,09,16,49,16.30
2016,02,09,16,50,16.30
2016,02,09,16,51,16.20
2016,02,09,16,52,16.20
2016,02,09,16,53,16.10
2016,02,09,16,54,16.10
2016,02,09,16,55,16.10
2016,02,09,16,56,16.00
2016,02,09,16,57,16.00
2016,02,09,16,58,15.90
2016,02,09,16,59,15.90
2016,02,09,17,00,15.80
2016,02,09,17,01,15.70
2016,02,09,17,02,15.60
2016,02,09,17,03,15.60
2016,02,09,17,04,15.50
2016,02,09,17,05,15.40
2016,02,09,17,06,15.30
2016,02,09,17,07,15.20
2016,02,09,17,08,15.10
2016,02,09,17,09,15.00
2016,02,09,17,10,14.90
2016,02,09,17,11,14.90
2016,02,09,17,12,14.80
2016,02,09,17,13,14.80
2016,02,09,17,14,14.70
2016,02,09,17,15,14.60
2016,02,09,17,16,14.60
2016,02,09,17,17,14.50
2016,02,09,17,18,14.50
2016,02,09,17,19,14.40
2016,02,09,17,20,14.30
2016,02,09,17,21,14.30
2016,02,09,17,22,14.20
2016,02,09,17,23,14.10
2016,02,09,17,24,14.10
2016,02,09,17,25,14.00
2016,02,09,17,26,13.90
2016,02,09,17,27,13.90
2016,02,09,17,28,13.90
2016,02,09,17,29,13.80
2016,02,09,17,30,13.80
2016,02,09,17,31,13.70
2016,02,09,17,32,13.70
2016,02,09,17,33,13.60
2016,02,09,17,34,13.60
2016,02,09,17,35,13.60
2016,02,09,17,36,13.50
2016,02,09,17,37,13.50
2016,02,09,17,38,13.40
2016,02,09,17,39,13.30
2016,02,09,17,40,13.30
2016,02,09,17,41,13.30
2016,02,09,17,42,13.20
2016,02,09,17,43,13.20
2016,02,09,17,44,13.20
2016,02,09,17,45,13.10
2016,02,09,17,46,13.10